Starlink 32842

operational
NORAD ID: 62822 Int'l Des: 2025-018 Owner: SPXS Country: US Constellation: starlink
LEOCIRCULAR

About Starlink 32842

Description loading...

Live Position

Loading 3D Globe...

Upcoming Passes

Altitude History

Altitude vs Time

uPlot chart will show altitude changes over time

Two-Line Element Set

1 62822U 25018S 25348.28765254 .00033731 00000-0 11456-2 0 9993
2 62822 53.1603 346.2333 0001174 72.2761 287.8368 15.30207979 50103
Epoch: Dec 14, 2025 • Age: 25 hours

Current Status

Altitude 491.2 km
Velocity 7.62 km/s
Sub-Earth Point -45.94°S, 91.26°E
Launch Date Jan 24, 2025
Age 0.8 years
Type internet

Technical Details

Classification Payload
Mass 730.00 kg
Dry Mass 700.00 kg
Total Mass 730.00 kg
Length 0.30 m
Diameter 4.10 m
Span 29.00 m
Shape Box + pan
Manufacturer SPXS
Bus Type Starlink V2M
Phase Status In Orbit
Owner/State SPXS/US

Large Constellations

Loading constellations...